Cloud_Cover
23 100 100 5 5 19 99 18 36 0 0 3 0 0 0 0 9 100 100 95 100 98 100 95 22 97 84 5 5 5 39 31 7 60 100 100 100 100 100 100 100 100 100 100
97 98 100 100 71 39 35 4 0 0 0 0 0 0 0 0 98 100 99 100 98 100 100 100 100 100 36 5 6 8 18 9 16 4 100 100 100 100 100 100 100 100 100 100
100 100 100 100 21 5 5 0 0 0 0 0 0 0 0 1 100 100 100 100 100 100 100 99 100 96 100 5 24 5 5 6 10 15 39 100 100 100 100 100 100 100 100 100
100 100 100 100 30 5 11 0 0 0 0 0 0 0 0 4 100 100 100 100 100 100 100 100 100 72 5 1 0 1 0 0 2 0 5 19 86 94 100 100 100 100 100 100
100 98 89 100 46 23 3 0 0 0 0 0 0 0 0 5 7 100 100 100 96 100 100 100 55 6 5 5 2 0 0 0 0 0 0 19 10 31 100 64 100 100 100 100
82 11 77 99 58 18 5 0 0 0 0 0 0 0 0 2 4 78 100 82 99 59 75 20 17 22 26 5 1 5 5 5 5 1 0 0 0 6 31 87 98 100 100 100
8 74 100 5 75 32 1 0 0 0 0 0 0 0 0 0 1 1 5 99 100 75 36 42 92 93 59 32 5 4 0 0 0 0 0 0 0 0 0 1 26 69 88 100
98 58 64 19 57 11 0 0 0 0 0 0 0 0 0 4 4 5 5 10 72 79 44 10 51 37 21 5 5 5 4 5 5 4 2 0 0 0 0 0 6 26 37 12
5 66 15 5 5 0 0 2 0 0 0 0 0 0 4 5 5 13 13 8 7 20 98 26 37 71 14 11 5 49 72 35 5 5 5 5 0 0 0 0 0 0 12 5
11 93 8 5 5 5 5 5 0 0 0 0 0 0 1 5 5 5 90 100 100 92 78 55 100 93 90 84 52 5 8 7 86 100 100 83 8 5 4 0 0 0 0 0
90 100 12 13 5 5 5 5 0 0 0 0 0 0 0 5 47 97 100 100 100 100 100 100 100 100 100 98 99 16 5 4 5 30 35 54 100 97 64 48 61 85 85 84
100 100 98 93 5 5 5 5 1 0 0 0 0 0 0 4 12 95 100 100 100 100 99 100 91 99 100 73 5 5 0 4 5 2 5 2 0 80 100 100 100 100 100 100
100 90 81 100 31 12 5 5 2 0 0 0 0 0 5 5 31 84 98 89 80 5 34 77 90 51 3 1 1 4 3 5 5 5 10 26 98 100 100 100 100 100 100 100
32 95 44 11 5 5 33 5 2 0 0 0 0 1 5 5 5 5 28 5 5 5 5 5 5 5 0 5 5 5 6 6 5 11 100 100 100 100 100 100 100 96 100 100
6 98 48 20 5 7 8 3 0 0 0 0 2 5 5 5 5 5 5 10 5 5 5 5 5 4 5 5 13 75 35 9 38 100 100 78 100 98 100 100 100 100 100 100
9 54 6 6 5 15 5 0 0 0 0 0 0 1 5 5 2 5 5 9 5 5 12 23 25 0 5 18 99 46 100 55 92 100 100 81 100 100 100 100 100 97 100 100
5 5 5 5 5 5 0 0 0 0 0 0 5 4 0 0 0 5 7 5 5 10 29 18 5 29 100 100 61 72 34 80 100 100 60 100 100 100 100 100 100 92 45 43
34 45 6 6 5 5 0 0 0 0 0 3 2 0 0 0 5 5 4 5 5 5 5 7 18 100 100 84 20 58 24 100 98 15 9 65 100 100 100 100 100 44 30 51
77 7 5 58 5 4 0 0 0 3 0 0 0 0 0 4 5 2 5 5 4 5 5 4 41 25 5 62 7 100 30 97 100 94 63 56 70 100 100 68 98 100 96 5
5 5 5 13 4 2 0 0 5 4 5 0 0 0 0 4 6 5 4 5 5 5 28 29 31 55 97 14 33 100 84 100 100 68 24 52 100 100 100 100 100 92 4 8
17 5 5 5 1 1 2 0 1 3 0 0 0 4 1 5 5 5 5 5 5 54 80 87 14 6 5 6 68 100 100 89 56 5 17 100 100 100 100 100 100 5 5 15
5 5 7 5 5 8 3 16 4 0 0 0 0 0 1 5 5 5 3 0 2 5 38 90 74 82 9 98 100 100 73 32 5 5 97 100 82 29 59 100 58 7 43 99
74 6 5 5 5 5 61 5 0 1 0 0 0 0 0 5 5 5 4 5 45 98 100 100 100 97 100 100 100 32 45 11 5 98 100 57 5 3 4 5 20 96 100 100
10 5 5 5 5 5 5 5 5 1 0 0 4 4 5 5 5 5 9 44 100 100 100 100 82 95 97 100 84 8 5 5 27 100 65 97 30 5 5 59 100 95 99 100
30 9 6 5 5 26 27 74 5 0 0 1 5 4 5 5 6 97 99 100 100 100 100 91 83 20 100 91 65 5 5 5 99 100 98 100 96 19 5 88 98 46 100 100
11 62 5 5 24 100 93 45 0 0 0 0 0 2 5 26 100 84 100 100 100 100 98 42 58 100 91 15 8 6 5 5 98 100 100 100 100 95 98 84 98 80 100 100